Location: American Medical Response
(33.3472°N, 96.5511°W)
Time: 14:24:43
(UTC+00:00)

Meteor 2-15 Rocket - Pass Details

Date: 08 December 2021
Orbit: 939 x 956 km, 82.5° (Epoch: 29 January)

Event Time Altitude Azimuth Distance (km) Brightness Sun altitude
Rises 12:06:38 0° 351° (N) 3,607 7.2 -14.6°
Reaches altitude 10° 12:09:08 10° 350° (N) 2,659 6.5 -14.1°
Maximum altitude 12:15:11 76° 266° (W) 968 4.4 -12.9°
Drops below altitude 10° 12:21:13 10° 181° (S) 2,644 7.0 -11.7°
Sets 12:23:41 0° 180° (S) 3,586 7.7 -11.2°
